Weather History for Wilmington, OH

Change the Weather History Date:

Tuesday, December 11, 2012

  Actual Average (KDAY) Record (KDAY)
Temperature  
Mean Temperature 30 °F 32 °F  
Max Temperature 33 °F 39 °F 67 °F (1931)
Min Temperature 24 °F 25 °F -8 °F (1917)
Degree Days  
Heating Degree Days 36 33  
Month to date heating degree days 340  
Since 1 July heating degree days 1451  
Cooling Degree Days 0 0  
Month to date cooling degree days 0  
Year to date cooling degree days 891  
Moisture  
Dew Point 26 °F    
Average Humidity 82    
Maximum Humidity 96    
Minimum Humidity 67    
Precipitation  
Precipitation 0.00 in 0.10 in 1.50 in (1899)
Month to date precipitation 1.14  
Year to date precipitation 39.07  
Snow  
Snow 0.00 in 0.10 in 5.40 in (1960)
Month to date snowfall 1.1  
Since 1 July snowfall 2.1  
Snow Depth -    
Sea Level Pressure  
Sea Level Pressure 30.12 in    
Wind  
Wind Speed 9 mph (WSW)    
Max Wind Speed 13 mph    
Max Gust Speed -    
Visibility 8 miles    
Events Snow    
T = Trace of Precipitation, MM = Missing Value Source: NWS Daily Summary

Daily Weather History Graph

Daily Weather History Graph

Search for Another Location

Airport:

Trip Planner

Search our weather history database for the weather conditions in past years. The results will help you decide how hot, cold, wet, or windy it might be!

Date:

Astronomy

Dec. 11, 2012 Rise Set
Actual Time 7:45 AM EST 5:11 PM EST
Civil Twilight 7:15 AM EST 5:42 PM EST
Nautical Twilight 6:41 AM EST 6:15 PM EST
Astronomical Twilight 6:09 AM EST 6:48 PM EST
Moon 5:39 AM EST (12/11) 3:49 PM EST (12/11)
Length of Visible Light 10h 26m
Length of Day
9h 26m
Waning Crescent, 4% of the Moon is Illuminated
Dec 11
Waning Crescent
Dec 13
New
Dec 20
First Quarter
Dec 28
Full
Jan 4
Last Quarter

Hourly Weather History & Observations

Time (EST) Temp. Windchill Dew Point Humidity Pressure Visibility Wind Dir Wind Speed Gust Speed Precip Events Conditions
12:17 AM 30.2 °F 20.8 °F 28.4 °F 93% 29.90 in 5.0 mi WNW 11.5 mph - N/A   Overcast
12:40 AM 30.2 °F 20.8 °F 28.4 °F 93% 29.90 in 4.0 mi West 11.5 mph - N/A   Overcast
12:54 AM 30.9 °F 21.2 °F 28.9 °F 92% 29.98 in 4.0 mi West 12.7 mph - N/A   Overcast
1:54 AM 30.9 °F 21.7 °F 28.9 °F 92% 29.99 in 5.0 mi West 11.5 mph - N/A   Overcast
2:54 AM 30.9 °F 23.5 °F 28.9 °F 92% 30.00 in 6.0 mi West 8.1 mph - N/A   Overcast
3:54 AM 30.9 °F 21.2 °F 30.0 °F 96% 30.02 in 5.0 mi West 12.7 mph - N/A   Overcast
4:54 AM 30.9 °F 23.5 °F 30.0 °F 96% 30.04 in 4.0 mi West 8.1 mph - N/A   Overcast
5:36 AM 32.0 °F 23.6 °F 28.4 °F 87% 29.97 in 7.0 mi West 10.4 mph - N/A   Overcast
5:54 AM 32.0 °F 24.8 °F 28.9 °F 88% 30.05 in 7.0 mi West 8.1 mph - N/A   Overcast
6:54 AM 32.0 °F 24.2 °F 28.9 °F 88% 30.07 in 7.0 mi West 9.2 mph - N/A   Overcast
7:47 AM 32.0 °F 24.2 °F 28.4 °F 87% 30.03 in 8.0 mi West 9.2 mph - N/A   Overcast
7:54 AM 32.0 °F 24.2 °F 28.0 °F 85% 30.11 in 8.0 mi West 9.2 mph - N/A   Overcast
8:54 AM 32.0 °F 25.6 °F 26.1 °F 79% 30.12 in 10.0 mi West 6.9 mph - N/A   Overcast
9:54 AM 32.0 °F 24.8 °F 26.1 °F 79% 30.16 in 10.0 mi West 8.1 mph - N/A   Overcast
10:54 AM 30.9 °F 24.3 °F 27.0 °F 85% 30.18 in 5.0 mi West 6.9 mph - 0.00 in Snow Light Snow
11:52 AM 32.0 °F 24.2 °F 26.6 °F 80% 30.10 in 10.0 mi WSW 9.2 mph - 0.00 in   Overcast
11:54 AM 32.0 °F 24.2 °F 26.1 °F 79% 30.18 in 10.0 mi West 9.2 mph - 0.00 in   Overcast
12:54 PM 32.0 °F 24.2 °F 26.1 °F 79% 30.18 in 10.0 mi West 9.2 mph - N/A   Overcast
1:04 PM 33.8 °F 26.4 °F 26.6 °F 75% 30.10 in 10.0 mi West 9.2 mph - N/A   Overcast
1:54 PM 33.1 °F 26.1 °F 25.0 °F 72% 30.17 in 10.0 mi WSW 8.1 mph - N/A   Overcast
2:31 PM 32.0 °F 23.6 °F 24.8 °F 75% 30.10 in 10.0 mi WSW 10.4 mph - N/A   Overcast
2:54 PM 33.1 °F 26.1 °F 25.0 °F 72% 30.17 in 10.0 mi West 8.1 mph - N/A   Overcast
3:52 PM 32.0 °F 23.6 °F 23.0 °F 69% 30.11 in 10.0 mi SW 10.4 mph - N/A   Overcast
3:54 PM 32.0 °F 23.6 °F 23.0 °F 69% 30.19 in 10.0 mi SW 10.4 mph - N/A   Overcast
4:54 PM 30.9 °F 23.5 °F 21.0 °F 67% 30.22 in 10.0 mi West 8.1 mph - N/A   Mostly Cloudy
5:29 PM 30.2 °F 23.4 °F 21.2 °F 69% 30.14 in 10.0 mi SW 6.9 mph - N/A   Scattered Clouds
5:54 PM 27.0 °F 20.5 °F 21.9 °F 81% 30.23 in 10.0 mi SSW 5.8 mph - N/A   Clear
6:54 PM 28.0 °F 22.8 °F 21.9 °F 78% 30.25 in 10.0 mi SSW 4.6 mph - N/A   Clear
7:54 PM 27.0 °F 20.5 °F 21.9 °F 81% 30.25 in 10.0 mi South 5.8 mph - N/A   Clear
8:54 PM 27.0 °F 21.6 °F 21.9 °F 81% 30.27 in 10.0 mi South 4.6 mph - N/A   Clear
9:54 PM 27.0 °F 23.0 °F 23.0 °F 85% 30.27 in 9.0 mi SSW 3.5 mph - N/A   Clear
10:54 PM 26.1 °F 21.9 °F 21.9 °F 84% 30.30 in 10.0 mi SSW 3.5 mph - N/A   Clear
11:54 PM 24.1 °F 18.2 °F 21.0 °F 88% 30.31 in 10.0 mi SSW 4.6 mph - N/A   Clear